| time (UTC) | temp C | wind direction | speed KPH | gust KPH | rain 1hr cm | rain 24hr cm | rain mn cm | humidity % | barometer mb |
| 20260506203503 | 18 | 128 | 1.6 | 6.4 | 0.00 | 0.00 | 0.00 | 87 | 1013.9 |
| 20260506203004 | 18 | 131 | 1.6 | 8.0 | 0.00 | 0.00 | 0.00 | 87 | 1013.9 |
| 20260506202527 | 18 | 133 | 3.2 | 9.7 | 0.00 | 0.00 | 0.00 | 87 | 1013.9 |
| 20260506202024 | 18 | 130 | 3.2 | 9.7 | 0.00 | 0.00 | 0.00 | 87 | 1013.8 |
| 20260506201525 | 18 | 127 | 3.2 | 8.0 | 0.00 | 0.00 | 0.00 | 87 | 1013.7 |
| 20260506201003 | 18 | 128 | 1.6 | 8.0 | 0.00 | 0.00 | 0.00 | 87 | 1013.7 |
| 20260506200503 | 18 | 76 | 1.6 | 8.0 | 0.00 | 0.00 | 0.00 | 85 | 1013.5 |
| 20260506200004 | 18 | 42 | 1.6 | 12.9 | 0.00 | 0.00 | 0.00 | 88 | 1013.4 |
| 20260506195504 | 18 | 33 | 3.2 | 12.9 | 0.00 | 0.00 | 0.00 | 88 | 1013.4 |
| 20260506195003 | 18 | 28 | 1.6 | 9.7 | 0.00 | 0.00 | 0.00 | 87 | 1013.2 |
| 20260506194503 | 18 | 32 | 3.2 | 9.7 | 0.00 | 0.00 | 0.00 | 87 | 1013.1 |
| 20260506194003 | 18 | 32 | 3.2 | 9.7 | 0.00 | 0.00 | 0.00 | 87 | 1013.1 |
| 20260506193524 | 18 | 33 | 4.8 | 9.7 | 0.00 | 0.00 | 0.00 | 87 | 1013.1 |
| 20260506193003 | 18 | 38 | 4.8 | 9.7 | 0.00 | 0.00 | 0.00 | 85 | 1013.0 |
| 20260506192503 | 18 | 34 | 3.2 | 8.0 | 0.00 | 0.00 | 0.00 | 85 | 1013.0 |
| 20260506192004 | 18 | 28 | 1.6 | 8.0 | 0.00 | 0.00 | 0.00 | 83 | 1012.9 |
| 20260506191524 | 18 | 34 | 1.6 | 8.0 | 0.00 | 0.00 | 0.00 | 83 | 1012.8 |
| 20260506191025 | 18 | 79 | 1.6 | 6.4 | 0.00 | 0.00 | 0.00 | 82 | 1012.7 |
| 20260506190524 | 18 | 82 | 3.2 | 8.0 | 0.00 | 0.00 | 0.00 | 82 | 1012.6 |
| 20260506190024 | 19 | 82 | 3.2 | 8.0 | 0.00 | 0.00 | 0.00 | 80 | 1012.6 |
| 20260506185503 | 19 | 90 | 3.2 | 8.0 | 0.00 | 0.00 | 0.00 | 80 | 1012.8 |
| 20260506185003 | 19 | 89 | 3.2 | 12.9 | 0.00 | 0.00 | 0.00 | 80 | 1012.7 |
| 20260506184503 | 19 | 87 | 3.2 | 12.9 | 0.00 | 0.00 | 0.00 | 80 | 1012.6 |
| 20260506184003 | 19 | 87 | 3.2 | 9.7 | 0.00 | 0.00 | 0.00 | 80 | 1012.5 |
| 20260506183524 | 19 | 79 | 1.6 | 6.4 | 0.00 | 0.00 | 0.00 | 79 | 1012.7 |
| 20260506183024 | 19 | 84 | 1.6 | 6.4 | 0.00 | 0.00 | 0.00 | 79 | 1012.5 |
| 20260506182503 | 19 | 93 | 1.6 | 9.7 | 0.00 | 0.00 | 0.00 | 79 | 1012.5 |
| 20260506182003 | 20 | 88 | 1.6 | 9.7 | 0.00 | 0.00 | 0.00 | 77 | 1012.5 |
| 20260506181504 | 20 | 86 | 1.6 | 8.0 | 0.00 | 0.00 | 0.00 | 77 | 1012.5 |
| 20260506181003 | 20 | 82 | 3.2 | 12.9 | 0.00 | 0.00 | 0.00 | 77 | 1012.5 |
| 20260506180503 | 20 | 82 | 3.2 | 12.9 | 0.00 | 0.00 | 0.00 | 77 | 1012.4 |
| 20260506180003 | 20 | 80 | 3.2 | 9.7 | 0.00 | 0.00 | 0.00 | 75 | 1012.5 |
| 20260506175504 | 20 | 80 | 3.2 | 9.7 | 0.00 | 0.00 | 0.00 | 75 | 1012.3 |
| 20260506175003 | 20 | 86 | 3.2 | 9.7 | 0.00 | 0.00 | 0.00 | 77 | 1012.4 |
| 20260506174524 | 20 | 85 | 3.2 | 11.3 | 0.00 | 0.00 | 0.00 | 77 | 1012.4 |
| 20260506174004 | 20 | 86 | 3.2 | 11.3 | 0.00 | 0.00 | 0.00 | 77 | 1012.4 |
| 20260506173503 | 20 | 90 | 3.2 | 8.0 | 0.00 | 0.00 | 0.00 | 77 | 1012.5 |
| 20260506173003 | 20 | 88 | 4.8 | 12.9 | 0.00 | 0.00 | 0.00 | 75 | 1012.3 |
| 20260506172524 | 20 | 81 | 4.8 | 14.5 | 0.00 | 0.00 | 0.00 | 75 | 1012.4 |
| 20260506172003 | 20 | 77 | 4.8 | 14.5 | 0.00 | 0.00 | 0.00 | 74 | 1012.3 |
| 20260506171503 | 20 | 80 | 4.8 | 14.5 | 0.00 | 0.00 | 0.00 | 75 | 1012.2 |
| 20260506171004 | 20 | 81 | 4.8 | 12.9 | 0.00 | 0.00 | 0.00 | 75 | 1012.2 |
| 20260506170503 | 20 | 88 | 4.8 | 14.5 | 0.00 | 0.00 | 0.00 | 75 | 1012.1 |
| 20260506170024 | 20 | 89 | 6.4 | 14.5 | 0.00 | 0.00 | 0.00 | 75 | 1012.0 |
| 20260506165503 | 20 | 85 | 6.4 | 16.1 | 0.00 | 0.00 | 0.00 | 75 | 1012.1 |
| 20260506165003 | 20 | 89 | 6.4 | 16.1 | 0.00 | 0.00 | 0.00 | 75 | 1012.1 |
| 20260506164504 | 20 | 84 | 6.4 | 17.7 | 0.00 | 0.00 | 0.00 | 75 | 1012.1 |
| 20260506164004 | 20 | 79 | 6.4 | 17.7 | 0.00 | 0.00 | 0.00 | 75 | 1012.0 |
| 20260506163503 | 20 | 84 | 6.4 | 17.7 | 0.00 | 0.00 | 0.00 | 77 | 1012.0 |
| 20260506163003 | 20 | 84 | 8.0 | 19.3 | 0.00 | 0.00 | 0.00 | 75 | 1012.1 |
| 20260506162503 | 21 | 83 | 8.0 | 19.3 | 0.00 | 0.00 | 0.00 | 75 | 1012.1 |
| 20260506162003 | 21 | 82 | 6.4 | 19.3 | 0.00 | 0.00 | 0.00 | 74 | 1012.1 |
| 20260506161524 | 21 | 54 | 6.4 | 20.9 | 0.00 | 0.00 | 0.00 | 75 | 1012.1 |
| 20260506161003 | 21 | 30 | 8.0 | 20.9 | 0.00 | 0.00 | 0.00 | 77 | 1012.0 |
| 20260506160503 | 21 | 49 | 6.4 | 17.7 | 0.00 | 0.00 | 0.00 | 75 | 1012.0 |
| 20260506160003 | 21 | 70 | 4.8 | 17.7 | 0.00 | 0.00 | 0.00 | 75 | 1012.0 |
| 20260506155503 | 21 | 35 | 9.7 | 24.1 | 0.00 | 0.00 | 0.00 | 77 | 1011.8 |
| 20260506155025 | 21 | 34 | 14.5 | 24.1 | 0.00 | 0.00 | 0.00 | 77 | 1011.8 |
| 20260506154503 | 21 | 31 | 12.9 | 24.1 | 0.00 | 0.00 | 0.00 | 75 | 1011.8 |
| 20260506154003 | 21 | 31 | 11.3 | 25.7 | 0.00 | 0.00 | 0.00 | 75 | 1011.8 |
| 20260506153504 | 21 | 33 | 14.5 | 27.4 | 0.00 | 0.00 | 0.00 | 74 | 1011.7 |
| 20260506153024 | 22 | 32 | 14.5 | 27.4 | 0.00 | 0.00 | 0.00 | 72 | 1011.6 |
| 20260506152504 | 22 | 35 | 9.7 | 25.7 | 0.00 | 0.00 | 0.00 | 71 | 1011.5 |
| 20260506152004 | 22 | 34 | 9.7 | 24.1 | 0.00 | 0.00 | 0.00 | 69 | 1011.6 |
| 20260506151504 | 22 | 29 | 11.3 | 24.1 | 0.00 | 0.00 | 0.00 | 69 | 1011.6 |
| 20260506151003 | 22 | 27 | 9.7 | 22.5 | 0.00 | 0.00 | 0.00 | 68 | 1011.6 |
| 20260506150503 | 22 | 33 | 8.0 | 20.9 | 0.00 | 0.00 | 0.00 | 68 | 1011.7 |
| 20260506150003 | 22 | 34 | 11.3 | 25.7 | 0.00 | 0.00 | 0.00 | 69 | 1011.7 |
| 20260506145503 | 22 | 32 | 11.3 | 25.7 | 0.00 | 0.00 | 0.00 | 68 | 1011.7 |
| 20260506145003 | 22 | 33 | 12.9 | 29.0 | 0.00 | 0.00 | 0.00 | 66 | 1011.7 |
| 20260506144503 | 22 | 32 | 16.1 | 29.0 | 0.00 | 0.00 | 0.00 | 66 | 1011.6 |
| 20260506144003 | 22 | 32 | 14.5 | 29.0 | 0.00 | 0.00 | 0.00 | 69 | 1011.6 |
| 20260506143503 | 23 | 34 | 12.9 | 29.0 | 0.00 | 0.00 | 0.00 | 68 | 1011.8 |
| 20260506143003 | 23 | 29 | 14.5 | 29.0 | 0.00 | 0.00 | 0.00 | 68 | 1011.5 |
| 20260506142503 | 23 | 32 | 14.5 | 25.7 | 0.00 | 0.00 | 0.00 | 68 | 1011.4 |
| 20260506142024 | 23 | 36 | 14.5 | 25.7 | 0.00 | 0.00 | 0.00 | 69 | 1011.5 |
| 20260506141503 | 23 | 32 | 14.5 | 25.7 | 0.00 | 0.00 | 0.00 | 65 | 1011.5 |
| 20260506141003 | 23 | 37 | 12.9 | 25.7 | 0.00 | 0.00 | 0.00 | 62 | 1011.6 |
| 20260506140504 | 23 | 41 | 11.3 | 25.7 | 0.00 | 0.00 | 0.00 | 61 | 1011.5 |
| 20260506140004 | 24 | 37 | 11.3 | 25.7 | 0.00 | 0.00 | 0.00 | 58 | 1011.5 |
| 20260506135503 | 25 | 56 | 6.4 | 20.9 | 0.00 | 0.00 | 0.00 | 56 | 1011.4 |
| 20260506135003 | 24 | 61 | 6.4 | 19.3 | 0.00 | 0.00 | 0.00 | 58 | 1011.6 |
| 20260506134504 | 24 | 47 | 6.4 | 19.3 | 0.00 | 0.00 | 0.00 | 59 | 1011.6 |
| 20260506134024 | 25 | 45 | 6.4 | 19.3 | 0.00 | 0.00 | 0.00 | 58 | 1011.7 |
| 20260506133503 | 24 | 38 | 6.4 | 24.1 | 0.00 | 0.00 | 0.00 | 58 | 1011.7 |
| 20260506133003 | 24 | 33 | 6.4 | 19.3 | 0.00 | 0.00 | 0.00 | 56 | 1011.8 |
| 20260506132503 | 24 | 52 | 8.0 | 19.3 | 0.00 | 0.00 | 0.00 | 58 | 1011.9 |
| 20260506132003 | 24 | 55 | 8.0 | 20.9 | 0.00 | 0.00 | 0.00 | 58 | 1011.8 |
| 20260506131503 | 23 | 64 | 8.0 | 20.9 | 0.00 | 0.00 | 0.00 | 59 | 1012.0 |
| 20260506131003 | 24 | 65 | 6.4 | 17.7 | 0.00 | 0.00 | 0.00 | 58 | 1012.0 |
| 20260506130524 | 23 | 31 | 9.7 | 20.9 | 0.00 | 0.00 | 0.00 | 59 | 1011.9 |
| 20260506130003 | 23 | 31 | 9.7 | 20.9 | 0.00 | 0.00 | 0.00 | 59 | 1012.1 |
| 20260506125503 | 23 | 37 | 9.7 | 22.5 | 0.00 | 0.00 | 0.00 | 59 | 1012.1 |
| 20260506125003 | 23 | 46 | 8.0 | 22.5 | 0.00 | 0.00 | 0.00 | 59 | 1012.2 |
| 20260506124503 | 24 | 44 | 6.4 | 22.5 | 0.00 | 0.00 | 0.00 | 59 | 1012.2 |
| 20260506124004 | 24 | 36 | 6.4 | 20.9 | 0.00 | 0.00 | 0.00 | 59 | 1012.2 |
| 20260506123503 | 23 | 42 | 8.0 | 24.1 | 0.00 | 0.00 | 0.00 | 61 | 1012.2 |
| 20260506123004 | 23 | 37 | 8.0 | 29.0 | 0.00 | 0.00 | 0.00 | 62 | 1012.3 |
| 20260506122504 | 23 | 27 | 8.0 | 29.0 | 0.00 | 0.00 | 0.00 | 64 | 1012.2 |
| 20260506122003 | 23 | 30 | 9.7 | 25.7 | 0.00 | 0.00 | 0.00 | 64 | 1012.3 |
| 20260506121503 | 23 | 33 | 11.3 | 25.7 | 0.00 | 0.00 | 0.00 | 62 | 1012.3 |
| 20260506121003 | 23 | 40 | 8.0 | 19.3 | 0.00 | 0.00 | 0.00 | 61 | 1012.4 |
| 20260506120503 | 23 | 47 | 6.4 | 20.9 | 0.00 | 0.00 | 0.00 | 59 | 1012.3 |
| 20260506120003 | 23 | 35 | 9.7 | 20.9 | 0.00 | 0.00 | 0.00 | 61 | 1012.4 |
| 20260506115503 | 23 | 33 | 9.7 | 20.9 | 0.00 | 0.00 | 0.00 | 61 | 1012.5 |
| 20260506115004 | 23 | 35 | 6.4 | 20.9 | 0.00 | 0.00 | 0.00 | 61 | 1012.4 |
| 20260506114504 | 23 | 38 | 4.8 | 20.9 | 0.00 | 0.00 | 0.00 | 62 | 1012.5 |
| 20260506114003 | 23 | 39 | 4.8 | 14.5 | 0.00 | 0.00 | 0.00 | 59 | 1012.6 |
| 20260506113503 | 23 | 40 | 4.8 | 17.7 | 0.00 | 0.00 | 0.00 | 59 | 1012.8 |
| 20260506113003 | 23 | 39 | 8.0 | 19.3 | 0.00 | 0.00 | 0.00 | 58 | 1012.8 |
| 20260506112503 | 23 | 46 | 6.4 | 19.3 | 0.00 | 0.00 | 0.00 | 56 | 1012.9 |
| 20260506112003 | 23 | 47 | 6.4 | 17.7 | 0.00 | 0.00 | 0.00 | 58 | 1012.8 |
| 20260506111524 | 23 | 43 | 6.4 | 17.7 | 0.00 | 0.00 | 0.00 | 56 | 1012.7 |
| 20260506111024 | 23 | 30 | 6.4 | 20.9 | 0.00 | 0.00 | 0.00 | 59 | 1012.9 |
| 20260506110503 | 23 | 24 | 8.0 | 20.9 | 0.00 | 0.00 | 0.00 | 59 | 1012.9 |
| 20260506110004 | 23 | 30 | 4.8 | 17.7 | 0.00 | 0.00 | 0.00 | 58 | 1012.9 |
| 20260506105504 | 23 | 58 | 4.8 | 16.1 | 0.00 | 0.00 | 0.00 | 61 | 1013.1 |
| 20260506105024 | 23 | 70 | 3.2 | 14.5 | 0.00 | 0.00 | 0.00 | 58 | 1013.0 |
| 20260506104504 | 23 | 51 | 3.2 | 12.9 | 0.00 | 0.00 | 0.00 | 59 | 1013.1 |
| 20260506104003 | 23 | 25 | 4.8 | 24.1 | 0.00 | 0.00 | 0.00 | 59 | 1013.3 |
| 20260506103503 | 23 | 16 | 4.8 | 24.1 | 0.00 | 0.00 | 0.00 | 61 | 1013.3 |
| 20260506103003 | 23 | 21 | 3.2 | 16.1 | 0.00 | 0.00 | 0.00 | 61 | 1013.3 |
| 20260506102503 | 22 | 34 | 6.4 | 16.1 | 0.00 | 0.00 | 0.00 | 61 | 1013.4 |
| 20260506102003 | 23 | 30 | 4.8 | 14.5 | 0.00 | 0.00 | 0.00 | 62 | 1013.3 |
| 20260506101503 | 23 | 40 | 4.8 | 19.3 | 0.00 | 0.00 | 0.00 | 65 | 1013.5 |
| 20260506101003 | 22 | 47 | 6.4 | 19.3 | 0.00 | 0.00 | 0.00 | 64 | 1013.5 |
| 20260506100503 | 22 | 29 | 4.8 | 19.3 | 0.00 | 0.00 | 0.00 | 65 | 1013.6 |
| 20260506100003 | 22 | 11 | 3.2 | 19.3 | 0.00 | 0.00 | 0.00 | 65 | 1013.5 |
| 20260506095505 | 22 | 25 | 3.2 | 14.5 | 0.00 | 0.00 | 0.00 | 65 | 1013.5 |
| 20260506095004 | 22 | 54 | 3.2 | 14.5 | 0.00 | 0.00 | 0.00 | 66 | 1013.6 |
| 20260506094503 | 22 | 44 | 3.2 | 14.5 | 0.00 | 0.00 | 0.00 | 65 | 1013.6 |
| 20260506094003 | 22 | 20 | 3.2 | 14.5 | 0.00 | 0.00 | 0.00 | 66 | 1013.6 |
| 20260506093503 | 22 | 7 | 1.6 | 11.3 | 0.00 | 0.00 | 0.00 | 65 | 1013.5 |
| 20260506093004 | 22 | 46 | 1.6 | 6.4 | 0.00 | 0.00 | 0.00 | 66 | 1013.6 |
| 20260506092504 | 22 | 62 | 1.6 | 8.0 | 0.00 | 0.00 | 0.00 | 69 | 1013.5 |
| 20260506092003 | 21 | 360 | 1.6 | 8.0 | 0.00 | 0.00 | 0.00 | 68 | 1013.5 |
| 20260506091503 | 21 | 344 | 1.6 | 6.4 | 0.00 | 0.00 | 0.00 | 69 | 1013.4 |
| 20260506091003 | 21 | 34 | 3.2 | 16.1 | 0.00 | 0.00 | 0.00 | 71 | 1013.4 |
| 20260506090504 | 21 | 32 | 3.2 | 16.1 | 0.00 | 0.00 | 0.00 | 71 | 1013.4 |
| 20260506090003 | 21 | 39 | 1.6 | 9.7 | 0.00 | 0.00 | 0.00 | 68 | 1013.3 |
| 20260506085503 | 21 | 78 | 1.6 | 6.4 | 0.00 | 0.00 | 0.00 | 68 | 1013.3 |
| 20260506085003 | 21 | 47 | 1.6 | 8.0 | 0.00 | 0.00 | 0.00 | 69 | 1013.5 |
| 20260506084503 | 20 | 43 | 1.6 | 9.7 | 0.00 | 0.00 | 0.00 | 71 | 1013.4 |
| 20260506084025 | 20 | 39 | 1.6 | 9.7 | 0.00 | 0.00 | 0.00 | 69 | 1013.4 |
| 20260506083503 | 20 | 29 | 1.6 | 11.3 | 0.00 | 0.00 | 0.00 | 69 | 1013.3 |
| 20260506083003 | 20 | 31 | 1.6 | 11.3 | 0.00 | 0.00 | 0.00 | 69 | 1013.5 |
| 20260506082503 | 21 | 69 | 0.0 | 3.2 | 0.00 | 0.00 | 0.00 | 68 | 1013.4 |
| 20260506082003 | 20 | 359 | 1.6 | 6.4 | 0.00 | 0.00 | 0.00 | 66 | 1013.4 |
| 20260506081503 | 20 | 338 | 1.6 | 8.0 | 0.00 | 0.00 | 0.00 | 68 | 1013.5 |
| 20260506081025 | 20 | 318 | 1.6 | 8.0 | 0.00 | 0.00 | 0.00 | 65 | 1013.4 |
| 20260506080525 | 20 | 292 | 1.6 | 8.0 | 0.00 | 0.00 | 0.00 | 64 | 1013.4 |
| 20260506073503 | 19 | 303 | 0.0 | 3.2 | 0.00 | 0.00 | 0.00 | 62 | 1013.6 |
| 20260506073003 | 19 | 302 | 0.0 | 3.2 | 0.00 | 0.00 | 0.00 | 61 | 1013.7 |
| 20260506072503 | 19 | 257 | 0.0 | 3.2 | 0.00 | 0.00 | 0.00 | 61 | 1013.6 |
| 20260506072024 | 18 | 257 | 0.0 | 3.2 | 0.00 | 0.00 | 0.00 | 61 | 1013.6 |
| 20260506071503 | 18 | 254 | 0.0 | 1.6 | 0.00 | 0.00 | 0.00 | 61 | 1013.6 |
| 20260506071003 | 18 | 254 | 0.0 | 1.6 | 0.00 | 0.00 | 0.00 | 61 | 1013.7 |
| 20260506070503 | 18 | 254 | 0.0 | 1.6 | 0.00 | 0.00 | 0.00 | 62 | 1013.7 |
| 20260506062503 | 15 | 133 | 1.6 | 3.2 | 0.00 | 0.00 | 0.00 | 68 | 1013.6 |
| 20260506062004 | 15 | 130 | 0.0 | 3.2 | 0.00 | 0.00 | 0.00 | 69 | 1013.5 |
| 20260506061524 | 15 | 116 | 0.0 | 3.2 | 0.00 | 0.00 | 0.00 | 69 | 1013.5 |
| 20260506061003 | 14 | 0 | 0.0 | 0.0 | 0.00 | 0.00 | 0.00 | 71 | 1013.3 |
| 20260506060503 | 13 | 18 | 0.0 | 3.2 | 0.00 | 0.00 | 0.00 | 72 | 1013.2 |